ABS-4 (MOBISAT-1)

Last updated on Sun Jun 21 2026 00:03:03 GMT+0000 (Coordinated Universal Time)

1 28184U 04007A 26171.26294977 .00000032 00000+0 00000+0 0 9990 2 28184 6.0489 71.9702 0005075 16.4739 335.6938 1.00274282 52364
UTC large
Height (km)
Speed (km/s)
/
Latitude / Longitude
Inclination (degrees)
Orbital Period (minutes)
Azimuth
Elevation
Range (km)
Doppler Factor

Next 0 passes for location: London (51.5072 / 0.1276)

No passes found over London.
ABS-4 (MOBISAT-1)